Total_Precipitation_Accumulation
0.71 0.86 0.88 0.78 0.82 0.87 0.96 1.17 1.57 1.38 0.90 0.65 0.73 0.79 0.87 0.89 0.88 0.83 0.74 0.77 0.65 0.47 0.42 0.44 0.38 0.39 0.51 0.69 0.50 0.60 0.79 0.93 0.98 1.17 1.34 1.73 1.87 2.25
0.60 0.67 0.71 0.69 0.74 0.85 1.03 1.16 1.45 1.86 1.64 0.76 0.76 0.83 0.90 0.89 0.84 0.69 0.50 0.50 0.38 0.34 0.30 0.28 0.26 0.27 0.26 0.26 0.28 0.38 0.55 0.71 0.84 0.92 1.01 1.32 1.65 2.01
0.39 0.45 0.46 0.54 0.58 0.62 0.72 0.84 1.05 1.39 1.55 0.87 0.66 0.54 0.46 0.31 0.24 0.27 0.24 0.18 0.17 0.25 0.27 0.29 0.28 0.27 0.25 0.25 0.29 0.34 0.44 0.60 0.78 1.17 1.52 1.48 1.67 1.82
0.31 0.34 0.39 0.45 0.49 0.56 0.63 0.66 0.76 0.85 1.00 0.72 0.35 0.27 0.23 0.18 0.17 0.21 0.20 0.19 0.18 0.25 0.31 0.30 0.34 0.38 0.38 0.37 0.37 0.40 0.45 0.52 0.69 0.93 1.46 1.47 1.37 1.32
0.49 0.49 0.50 0.65 0.71 0.75 0.86 0.87 0.86 0.84 0.83 0.86 0.56 0.35 0.29 0.29 0.36 0.39 0.38 0.38 0.35 0.48 0.55 0.57 0.65 0.69 0.69 0.67 0.72 0.77 0.78 0.76 0.76 0.80 0.96 1.29 1.62 1.64
0.64 0.67 0.73 0.76 0.74 0.76 0.83 0.82 0.88 0.95 1.00 0.99 0.90 0.75 0.59 0.49 0.64 0.62 0.54 0.47 0.47 0.57 0.73 0.72 0.77 0.81 0.85 0.82 0.81 0.73 0.68 0.65 0.72 0.81 0.80 0.86 1.02 1.21
1.09 1.00 0.90 0.97 0.97 0.88 0.90 0.87 1.04 1.22 1.39 1.56 1.44 1.33 1.25 1.07 0.92 0.84 0.99 0.90 0.87 0.73 0.65 0.70 0.79 0.90 1.01 1.10 1.05 1.00 0.97 1.02 1.05 1.16 1.25 1.30 1.33 1.32
1.56 1.28 1.16 1.32 1.16 1.18 1.13 1.12 1.14 1.35 1.52 1.64 1.51 1.32 1.01 0.92 0.91 1.13 1.39 1.56 1.49 0.79 0.72 0.93 1.01 1.12 1.09 1.10 1.28 1.17 1.11 1.18 1.25 1.33 1.43 1.48 1.43 1.41
1.95 1.66 1.48 1.38 1.47 1.32 1.42 1.43 1.46 1.72 1.72 1.50 1.39 1.23 1.20 1.08 1.38 1.68 1.71 1.78 1.65 1.15 1.09 1.30 1.19 1.29 1.28 1.27 1.37 1.15 1.08 1.09 1.15 1.21 1.22 1.20 1.25 1.30
2.28 2.10 1.89 1.71 1.76 1.86 1.73 1.91 1.73 1.52 1.40 1.36 1.36 1.28 1.29 1.31 1.44 1.71 1.63 1.71 1.54 1.19 1.04 1.16 0.88 1.01 1.10 1.20 1.51 1.22 1.05 1.03 1.03 1.04 1.04 1.01 1.00 1.11
1.71 1.62 1.69 1.62 1.77 1.92 1.87 1.82 1.45 1.29 1.49 1.59 1.44 1.38 1.33 1.19 1.09 1.34 1.54 1.48 1.42 1.04 0.88 1.00 0.84 0.87 0.91 0.87 0.93 1.11 0.96 0.92 0.90 0.87 0.85 0.90 0.96 1.04
1.43 1.31 1.34 1.05 1.20 1.56 1.27 1.04 1.08 0.96 1.07 1.18 1.17 1.09 1.03 1.05 1.22 1.13 1.48 2.21 1.78 1.49 0.88 1.44 1.14 1.03 1.37 0.71 0.71 0.83 0.76 0.74 0.70 0.65 0.65 0.69 0.74 0.71
1.34 1.29 1.32 1.60 1.67 1.57 1.43 1.20 1.23 1.34 1.29 1.09 0.97 0.95 0.93 0.89 0.87 0.96 1.24 2.16 2.44 1.85 1.01 1.89 1.76 0.93 1.28 0.70 0.53 0.69 0.63 0.63 0.69 0.72 0.74 0.71 0.66 0.68
0.70 0.78 0.93 1.31 1.00 0.95 0.91 0.87 0.90 0.85 0.65 0.64 0.65 0.64 0.66 0.74 0.85 0.99 1.08 1.23 1.39 1.76 1.26 1.47 2.15 1.16 1.56 1.18 0.68 0.64 0.67 0.62 0.72 0.77 0.80 0.97 0.95 0.97
0.80 0.95 1.05 0.92 0.79 0.73 0.75 0.81 0.86 0.65 0.67 0.80 0.79 0.79 0.84 0.98 1.03 0.98 0.99 1.00 1.07 1.20 1.30 1.24 1.65 1.56 1.74 1.52 1.00 0.68 0.88 0.82 0.85 1.15 1.37 1.28 0.88 0.82
0.89 0.96 0.80 0.83 0.82 0.66 0.76 0.76 0.63 0.66 0.88 1.00 1.05 1.00 1.12 1.11 1.04 1.14 1.39 1.30 1.57 1.34 1.26 1.29 1.33 1.43 1.43 0.94 1.09 0.94 0.78 1.21 1.07 1.09 1.35 1.47 1.45 1.07
0.54 0.38 0.44 0.48 0.57 0.64 0.58 0.66 0.79 0.88 0.94 0.93 1.15 1.11 1.10 1.23 1.25 1.38 1.67 1.85 1.76 1.35 1.25 1.09 0.97 0.90 0.91 0.87 1.06 0.79 0.88 1.12 1.24 1.32 1.46 1.54 1.54 1.08
0.62 0.44 0.39 0.37 0.41 0.51 0.64 0.72 0.82 0.96 0.85 0.96 0.96 1.01 1.17 1.20 1.34 1.53 1.72 1.69 1.47 1.09 1.09 0.94 0.87 0.95 0.79 0.67 0.91 1.11 1.09 1.25 1.32 1.33 1.40 1.53 1.28 1.15
0.68 0.50 0.49 0.51 0.55 0.63 0.70 0.80 0.83 0.76 0.95 1.14 1.09 1.02 1.11 1.24 1.45 1.36 1.36 1.32 1.10 0.92 0.86 0.81 0.97 1.30 1.41 0.71 0.46 0.96 1.68 1.43 1.17 1.11 1.00 1.00 1.01 1.10
0.56 0.55 0.50 0.56 0.62 0.68 0.70 0.76 0.76 0.77 0.93 0.98 1.09 1.04 1.12 1.40 1.41 1.29 1.14 1.08 1.01 0.83 0.66 0.50 0.59 0.95 1.83 1.53 1.37 0.94 1.09 1.53 1.29 1.22 0.88 0.78 0.96 1.05
0.54 0.60 0.57 0.52 0.64 0.69 0.69 0.68 0.74 0.98 1.22 1.28 1.14 1.13 1.17 1.57 1.45 1.11 0.99 0.87 0.87 0.84 0.72 0.31 0.27 0.78 1.25 1.33 1.20 0.59 0.94 1.09 1.06 1.46 1.24 1.19 0.85 0.61
0.50 0.55 0.57 0.60 0.63 0.76 0.76 0.79 0.85 0.94 1.00 1.03 1.09 1.19 1.33 1.53 1.46 1.09 0.90 1.01 0.90 0.76 0.67 0.48 0.58 0.91 1.10 1.14 0.76 0.62 0.68 0.72 0.62 0.59 0.93 1.41 1.91 2.07
0.49 0.50 0.49 0.57 0.63 0.67 0.76 0.87 1.05 1.03 1.09 1.33 1.36 1.33 1.41 1.40 0.90 0.94 0.90 0.92 1.01 1.00 0.81 0.88 0.72 0.75 0.74 0.85 0.94 0.81 0.45 0.45 0.47 0.56 0.89 0.88 1.02 1.23